Home   Weather   Unna   Past weeks

Flag for Germany Past Weather in Unna, North Rhine-Westphalia, Germany — Yesterday and Last 2 Weeks

Now
45 °F

Passing clouds.


Feels Like: 39 °F
Forecast: 38 / 45 °F
Wind: 10 mph from Southwest

Location: Dortmund / Wickede

Current Time: Dec 9, 2016 at 6:57:57 am

Latest Report: Dec 9, 2016 at 6:20 am


Visibility: 5 mi

Pressure: 30.33 "Hg

Humidity: 87%

Dew Point: 41 °F

Location of UnnaLocation

Past Weather in Unna — Graph

°F

Unna Temperature Yesterday

Maximum temperature yesterday: 48 °F (at 10:50 am)
Minimum temperature yesterday: 43 °F (at 5:20 am)
Average temperature yesterday: 45 °F

High & Low Weather Summary for the Past Weeks

 TemperatureHumidityPressure
High48 °F (Dec 8, 10:50 am)93% (Nov 24, 5:20 am)30.57 "Hg (Nov 24, 5:20 am)
Low21 °F (Nov 29, 6:50 am)41% (Nov 30, 12:20 pm)30.07 "Hg (Nov 26, 1:20 pm)
Average36 °F75%30.29 "Hg
* Reported Nov 24 5:20 am — Dec 9 5:20 am, Unna, Weather by CustomWeather, © 2016

Note: Actual official high and low records may vary slightly from our data, if they occured in-between our weather recording intervals... More about our weather records

Advertising

Unna Weather History for the Previous 24 Hours

Scroll right to see more
 ConditionsComfort  
Time TempWeatherWind HumidityBarometerVisibility
5:20 am
Fri, Dec 9
45 °FPassing clouds.12 mph87%30.33 "Hg4 mi
9:50 pm
Thu, Dec 8
45 °FPassing clouds.16 mph61%30.30 "HgN/A
9:20 pm45 °FSprinkles. Passing clouds.17 mph61%30.30 "HgN/A
8:50 pm45 °FPassing clouds.12 mph57%30.30 "HgN/A
8:20 pm45 °FPassing clouds.13 mph57%30.30 "HgN/A
7:50 pm43 °FClear.13 mph61%30.30 "Hg10 mi
7:20 pm45 °FClear.13 mph57%30.30 "Hg10 mi
6:50 pm43 °FClear.14 mph57%30.30 "Hg10 mi
6:20 pm45 °FClear.12 mph53%30.30 "Hg10 mi
5:50 pm45 °FClear.13 mph53%30.30 "Hg10 mi
5:20 pm45 °FClear.14 mph53%30.30 "Hg10 mi
4:50 pm45 °FClear.13 mph53%30.30 "Hg10 mi
4:20 pm46 °FClear.14 mph50%30.30 "Hg10 mi
3:50 pm45 °FSunny.13 mph53%30.30 "Hg10 mi
3:20 pm46 °FSunny.9 mph50%30.33 "Hg10 mi
2:50 pm46 °FSunny.9 mph50%30.33 "Hg10 mi
2:20 pm46 °FSunny.9 mph50%30.33 "Hg10 mi
1:50 pm48 °FSunny.12 mph46%30.33 "Hg10 mi
1:20 pm48 °FSunny.13 mph46%30.33 "Hg10 mi
12:50 pm48 °FSunny.14 mph43%30.33 "Hg10 mi
12:20 pm48 °FSunny.10 mph43%30.36 "Hg10 mi
11:50 am48 °FSunny.9 mph46%30.36 "Hg10 mi
11:20 am48 °FSunny.14 mph43%30.36 "Hg10 mi
10:50 am48 °FSunny.16 mph43%30.36 "Hg10 mi
10:20 am46 °FSunny.16 mph46%30.36 "Hg10 mi
9:50 am46 °FSunny.13 mph46%30.39 "Hg10 mi
9:20 am45 °FSunny.16 mph49%30.39 "Hg10 mi
8:50 am45 °FSunny.16 mph53%30.39 "Hg10 mi
8:20 am43 °FClear.13 mph57%30.39 "Hg10 mi
7:50 am45 °FClear.16 mph57%30.39 "Hg10 mi
7:20 am43 °FClear.14 mph61%30.39 "Hg10 mi
6:50 am43 °FClear.13 mph61%30.36 "Hg10 mi
6:20 am43 °FClear.14 mph61%30.36 "Hg10 mi
Weather by CustomWeather, © 2016

See weather overviewHow to use our weather pages